User: anonymous   Login
Location: Ariel
(45.9570°N, 122.5700°W)
Time: 20:55:15
(UTC-07:00)
Language:

UKube-1 - Orbit

View from above orbital plane
View from above orbital plane
View from above satellite
View from above satellite

Ground track
Ground track

The orbit data is extracted from the following two-line orbital elements,

1 40074U 14037F   20296.50596575  .00000259  00000-0  38013-4 0  9996
2 40074  98.4484 132.4020 0005382  72.0069 288.1731 14.84343748340607
Epoch (UTC): 22 October 2020 12:08:35
Eccentricity: 0.0005382
inclination: 98.4484°
perigee height: 612 km
apogee height: 619 km
right ascension of ascending node: 132.4020°
argument of perigee: 72.0069°
revolutions per day: 14.84343748
mean anomaly at epoch: 288.1731°
orbit number at epoch: 34060

The dashed part of the orbit path shows where the satellite is in the earth's shadow,  

DLR